Location: New Town
(33.2710°N, 90.7534°W)
Time: 01:59:33
(UTC+00:00)

ISS - Pass Details

Date: 25 April 2021
Orbit: 417 x 422 km, 51.6° (Epoch: 18 May)

Event Time Altitude Azimuth Distance (km) Brightness Sun altitude
Exits shadow 10:43:30 11° 257° (WSW) 1,441 -1.7 -8.2°
Maximum altitude 10:46:25 33° 321° (NW) 734 -2.7 -7.7°
Drops below altitude 10° 10:49:31 10° 28° (NNE) 1,504 -0.1 -7.1°
Sets 10:51:46 0° 38° (NE) 2,371 1.2 -6.6°
